Location: Gaast
(52.9002°N, 5.8891°E)
Time: 00:21:30
(UTC+00:00)

USA 281 - Pass Details

Date: 18 November 2025
Orbit: 1079 x 1080 km, 106.0° (Epoch: 27 November)

Event Time Altitude Azimuth Distance (km) Brightness Sun altitude
Exits shadow 16:24:37 - 80° (E) 3,151 5.0 -7.2°
Reaches altitude 10° 16:25:25 10° 75° (ENE) 2,927 4.8 -7.3°
Maximum altitude 16:30:04 21° 30° (NNE) 2,216 4.4 -7.9°
Drops below altitude 10° 16:34:43 10° 345° (NNW) 2,933 5.5 -8.6°
Sets 16:37:52 0° 330° (NNW) 3,892 6.3 -9.0°
